Back to catalog

SNAPPY

AliveCommunicationsSSO
NORAD 69014·PAYLOAD·🇺🇸 United States

Launched May 3, 2026 from Vandenberg Space Force Base

Loading…

Next Passes (next 24 hours)

TLE

FreshSource: Space-Track

Epoch: Sep 13, 2026, 15:48 UTC

1 69014U 26100AL  26256.65871208  .00003220  00000-0  14502-3 0  9999
2 69014  97.3936 153.0640 0007743 102.8565 257.3537 15.21751481 20263

Track SNAPPY in real time with AllMySat

Download on the App Store